Location: ???????
(54.6339°N, 39.4245°E)
Time: 02:49:01
(UTC+00:00)

Cosmos 1151 Rocket - Pass Details

Date: 19 May 2025
Orbit: 586 x 607 km, 82.5° (Epoch: 15 June)

Event Time Altitude Azimuth Distance (km) Brightness Sun altitude
Exits shadow 20:42:52 25° 153° (SSE) 1,192 4.0 -15.0°
Maximum altitude 20:44:55 46° 94° (E) 798 3.5 -15.0°
Drops below altitude 10° 20:48:58 10° 22° (NNE) 1,924 6.6 -15.1°
Sets 20:51:14 0° 16° (NNE) 2,830 7.8 -15.2°
